Satellite: SRMSAT Catalog number: 37841 Epoch time: 12150.26108914 Element set: 0160 Inclination: 019.9697 deg RA of node: 117.3923 deg Eccentricity: 0.0011769 Arg of perigee: 341.2744 deg Mean anomaly: 018.7278 deg Mean motion: 14.10140464 rev/day Decay rate: 2.64e-06 rev/day^2 Epoch rev: 03252 Checksum: 277
Satellite: RAX-2 Catalog number: 37853 Epoch time: 12152.55650693 Element set: 191 Inclination: 101.7166 deg RA of node: 185.1679 deg Eccentricity: 0.0247363 Arg of perigee: 038.3562 deg Mean anomaly: 323.4920 deg Mean motion: 14.79895900 rev/day Decay rate: 4.568e-05 rev/day^2 Epoch rev: 3193 Checksum: 323
Satellite: AUBIESAT Catalog number: 37854 Epoch time: 12152.58308381 Element set: 192 Inclination: 101.7153 deg RA of node: 185.4222 deg Eccentricity: 0.0247835 Arg of perigee: 038.0762 deg Mean anomaly: 323.7665 deg Mean motion: 14.80262451 rev/day Decay rate: 4.963e-05 rev/day^2 Epoch rev: 3193 Checksum: 294
Satellite: HRBE Catalog number: 37855 Epoch time: 12151.98678002 Element set: 0192 Inclination: 101.7195 deg RA of node: 184.5267 deg Eccentricity: 0.0248738 Arg of perigee: 039.4831 deg Mean anomaly: 322.4202 deg Mean motion: 14.80122460 rev/day Decay rate: 4.904e-05 rev/day^2 Epoch rev: 03184 Checksum: 291
Satellite: RS-39 Catalog number: 38051 Epoch time: 12152.54274817 Element set: 382 Inclination: 051.6329 deg RA of node: 239.1371 deg Eccentricity: 0.0012196 Arg of perigee: 339.5104 deg Mean anomaly: 146.8636 deg Mean motion: 15.24038817 rev/day Decay rate: 7.502e-05 rev/day^2 Epoch rev: 1943 Checksum: 300
Satellite: E-STAR Catalog number: 38079 Epoch time: 12151.90691471 Element set: 260 Inclination: 069.4949 deg RA of node: 355.1413 deg Eccentricity: 0.0748960 Arg of perigee: 269.6523 deg Mean anomaly: 081.8862 deg Mean motion: 14.13905201 rev/day Decay rate: 1.4681e-04 rev/day^2 Epoch rev: 1514 Checksum: 310
Satellite: GOLIAT Catalog number: 38085 Epoch time: 12152.59466905 Element set: 240 Inclination: 069.4916 deg RA of node: 353.7821 deg Eccentricity: 0.0752577 Arg of perigee: 268.9923 deg Mean anomaly: 082.4859 deg Mean motion: 14.12984601 rev/day Decay rate: 1.6479e-04 rev/day^2 Epoch rev: 1523 Checksum: 338
Satellite: HORYU-2 Catalog number: 38340 Epoch time: 12151.12852606 Element set: 21 Inclination: 098.1740 deg RA of node: 090.8180 deg Eccentricity: 0.0013874 Arg of perigee: 031.9477 deg Mean anomaly: 328.2512 deg Mean motion: 14.69939215 rev/day Decay rate: 7.96e-06 rev/day^2 Epoch rev: 182 Checksum: 287
/EX